RH
80 77 97 90 78 64 88 82 93 95 89 89 92 83 75 57 46 45 44 44 44 44 50 41 60 78 93 100 100 100 100 100 100 87 45 100 100 88 94 100 78 33 30
98 100 100 83 76 60 74 99 100 100 100 99 98 98 81 65 45 43 47 46 42 61 70 58 42 56 89 100 100 100 100 100 100 83 54 65 100 66 100 100 100 99 42
100 100 82 64 68 94 89 100 100 93 94 100 100 99 83 77 76 60 53 44 43 68 77 68 46 31 51 94 100 100 100 100 100 100 89 72 42 48 100 93 100 100 100
98 99 100 100 100 92 89 100 100 97 100 100 100 90 94 95 100 94 97 92 89 100 99 81 61 61 38 47 100 100 100 100 100 100 90 52 56 46 95 100 100 98 99
74 76 89 100 100 82 92 100 100 100 98 89 100 88 96 100 100 100 100 99 100 100 100 100 67 52 49 36 83 100 100 100 100 83 99 100 98 86 99 100 100 81 64
45 49 56 70 78 64 65 99 100 90 74 100 96 100 94 100 100 100 100 100 98 100 100 100 96 61 47 43 45 100 100 100 100 98 99 100 100 80 100 100 100 95 74
58 41 37 49 68 70 60 77 71 86 78 100 99 100 100 90 72 88 100 100 100 100 100 94 100 79 50 57 42 89 100 100 96 100 100 100 100 100 78 100 100 100 88
76 60 39 39 39 33 38 50 62 64 69 79 81 86 100 100 81 85 96 74 93 100 100 100 85 97 62 45 44 56 100 100 88 100 100 100 100 100 100 82 100 100 86
89 72 54 46 40 40 35 32 35 31 26 45 33 68 86 99 74 86 81 98 97 81 100 100 100 100 90 59 45 36 69 100 95 100 100 100 100 100 84 56 85 98 56
61 60 46 48 50 40 36 36 34 34 32 29 32 32 64 65 84 86 100 98 100 100 100 100 100 94 96 56 52 34 43 82 100 93 100 100 100 100 99 97 63 81 62
51 48 47 48 56 63 51 46 42 34 34 26 27 36 59 72 92 100 95 100 100 100 100 100 99 90 100 69 49 56 37 44 83 100 91 100 100 100 100 100 85 88 74
60 52 56 57 55 64 66 54 54 41 42 31 23 24 27 43 74 85 99 100 100 100 100 100 100 100 100 83 57 51 55 42 41 88 100 96 100 100 100 100 100 90 82
74 77 68 62 68 58 57 49 54 51 42 35 25 24 24 24 37 60 96 100 100 87 89 100 100 100 90 99 70 60 50 60 59 46 98 91 100 100 100 100 100 98 45
67 66 75 64 75 59 48 54 46 45 39 35 30 24 24 22 25 29 48 91 100 100 99 99 100 90 81 74 97 77 89 78 76 45 78 99 100 100 100 100 100 100 88
56 57 58 66 60 54 50 46 39 35 34 37 32 29 28 20 22 30 26 37 70 99 100 100 99 93 88 100 90 80 79 95 69 37 75 96 88 100 100 100 100 100 100
40 42 49 44 40 42 44 39 33 38 28 35 37 30 21 19 22 18 21 26 24 41 100 100 100 100 92 98 92 84 90 91 56 39 60 97 97 100 99 100 100 100 100
46 51 51 50 44 56 48 41 44 46 36 39 38 22 20 21 16 15 15 26 37 96 100 100 100 100 88 69 89 86 68 48 50 51 63 90 99 89 84 99 99 100 100
62 70 80 75 74 62 66 60 50 45 48 37 24 23 23 18 50 82 99 100 100 100 100 100 96 73 68 64 100 79 51 60 63 72 94 97 83 63 99 100 100 100 100
89 98 84 85 81 85 79 69 56 36 39 37 28 34 49 67 100 100 100 100 95 99 100 100 97 55 73 95 95 52 59 81 80 100 94 86 78 100 100 100 100 100 100
91 94 99 95 90 78 79 60 44 36 40 37 57 74 98 100 100 100 100 100 100 96 93 93 68 70 96 89 73 59 94 100 100 100 83 70 64 99 100 100 100 100 100
97 93 90 89 85 67 56 48 34 42 36 72 98 100 100 100 100 100 95 84 78 72 88 88 69 84 81 88 68 70 95 98 100 100 100 80 76 93 99 100 100 100 100
92 91 82 82 75 52 44 42 37 41 75 100 100 100 100 98 71 88 85 80 75 93 100 100 81 69 69 80 74 100 100 100 100 100 100 100 100 100 88 74 85 100 100
82 82 68 56 56 49 59 43 44 68 100 100 100 100 100 64 84 100 100 100 92 100 100 100 84 81 55 72 88 100 100 100 100 100 100 98 100 100 100 100 100 100 77
56 57 62 64 64 48 44 49 52 100 100 100 100 88 100 79 100 100 100 100 100 88 100 100 100 94 94 76 78 98 100 100 100 92 90 85 81 76 89 100 100 100 100
66 62 62 64 52 60 56 58 96 100 100 100 100 93 92 100 95 100 98 97 100 100 100 100 100 100 100 90 90 96 100 88 92 87 79 65 53 49 49 57 85 92 100
67 71 77 78 67 66 70 54 100 100 100 100 100 100 100 100 100 100 100 76 100 100 100 100 100 100 100 100 93 93 89 80 81 79 52 43 37 28 28 24 34 46 49
Wind_Speed
51 47 43 42 43 46 46 45 46 48 50 49 49 50 51 51 49 49 48 44 42 35 30 29 27 30 32 31 31 30 32 31 27 32 27 18 18 20 10 20 16 12 11
50 50 45 45 46 45 45 43 46 43 45 49 52 53 51 49 46 46 44 41 37 30 26 29 30 33 32 37 35 33 39 34 28 34 35 28 31 26 18 14 10 19 17
49 49 50 52 51 37 33 40 47 46 42 48 54 54 47 41 39 41 39 39 34 32 29 32 29 32 37 38 40 37 41 43 35 34 33 37 38 31 22 20 14 13 21
55 50 48 47 44 35 32 39 43 51 44 55 60 53 42 42 39 34 34 34 31 27 37 31 30 31 36 41 41 41 42 45 44 40 37 35 36 28 29 28 28 27 20
55 53 52 51 50 39 30 41 44 45 50 59 61 50 44 43 40 36 38 38 37 36 36 40 39 38 36 44 43 45 45 48 46 40 38 44 38 38 36 34 36 39 34
71 69 62 52 52 54 51 50 54 53 47 51 65 48 51 47 41 39 37 40 41 42 44 43 47 44 42 40 51 47 49 50 51 44 39 38 46 44 40 39 36 39 40
70 72 67 68 65 62 61 66 70 61 47 56 64 53 50 48 41 42 39 48 55 56 56 52 54 40 44 34 48 54 49 53 54 49 41 38 51 58 50 47 39 39 38
73 71 69 67 68 66 67 68 74 68 66 71 66 53 50 51 42 41 44 50 59 67 74 60 57 43 39 40 42 58 54 57 59 56 48 47 53 49 47 43 37 37 36
76 74 71 70 70 67 64 67 71 71 77 73 73 70 64 56 51 50 47 43 61 58 68 71 75 63 53 53 43 54 62 55 63 60 59 56 51 48 47 45 45 42 45
80 76 75 73 71 71 69 69 69 69 71 71 72 73 68 69 63 58 54 42 70 62 69 67 75 75 59 61 30 44 56 64 63 68 66 67 59 58 55 48 45 44 43
81 79 76 77 75 75 75 74 74 72 73 76 71 71 70 67 69 69 64 58 62 72 74 78 81 72 64 62 57 53 42 60 69 71 71 70 69 62 61 58 48 45 43
86 82 80 80 79 81 80 79 77 74 76 76 75 71 69 65 71 78 77 75 75 71 73 83 83 71 64 62 67 68 55 39 66 73 77 75 73 69 61 57 53 47 45
91 92 88 85 84 86 87 82 81 80 80 78 76 72 69 67 71 77 86 86 83 84 82 76 74 76 74 67 69 70 73 61 51 75 78 79 76 75 69 63 59 59 54
97 98 94 89 91 89 87 87 83 82 82 82 79 76 71 71 75 84 89 93 93 90 88 87 85 85 77 71 69 69 72 67 67 64 80 82 75 75 72 73 66 59 61
94 97 94 97 96 94 88 88 86 84 84 85 83 81 77 73 74 78 81 87 94 96 87 91 93 81 75 62 65 63 63 62 64 63 78 80 78 76 69 70 70 65 64
92 93 93 95 96 89 90 89 88 85 84 82 80 80 76 71 73 75 75 83 87 87 84 84 73 78 77 62 63 59 64 66 61 59 75 73 72 75 74 65 62 67 64
82 84 83 86 82 79 82 83 79 79 81 82 76 72 67 69 67 64 64 69 73 71 63 69 69 70 72 61 58 58 59 56 53 59 65 66 64 65 64 59 57 69 65
71 71 74 79 80 80 82 80 79 75 70 69 67 62 61 56 47 42 47 59 64 65 63 63 70 70 64 57 50 53 52 46 54 55 58 57 57 57 58 57 60 67 67
66 66 70 70 72 74 76 78 70 66 59 60 57 54 47 41 35 44 46 52 59 61 64 58 58 60 45 42 51 48 47 48 51 50 55 56 53 57 61 63 68 72 73
66 65 64 65 66 69 71 71 67 59 56 53 49 43 42 38 45 52 51 56 54 60 60 58 54 43 41 45 48 47 49 51 47 46 51 48 54 62 62 65 69 71 74
69 67 67 67 67 67 69 68 62 53 52 46 42 44 43 44 46 50 56 57 62 59 53 47 48 38 41 44 44 51 53 54 50 46 45 47 47 64 68 67 68 69 71
70 72 69 68 68 62 59 63 55 51 47 45 41 38 38 38 24 25 29 34 33 34 46 50 52 43 41 46 50 52 56 51 52 53 52 48 50 55 63 78 80 77 74
66 67 67 61 58 56 61 56 50 48 50 52 52 42 35 38 22 41 57 47 37 39 45 45 41 39 40 47 53 52 53 52 53 54 54 53 51 53 57 64 67 70 72
64 64 64 65 62 62 56 49 46 52 54 56 54 59 42 32 31 57 48 48 41 44 47 45 45 44 44 45 51 54 55 56 56 55 54 56 57 54 58 69 70 73 71
58 59 56 54 53 53 48 45 53 56 59 59 55 50 47 40 49 55 53 41 47 52 48 50 53 54 54 50 50 55 58 58 57 56 54 55 54 59 64 68 71 71 72
47 47 47 49 51 52 47 49 59 63 62 56 58 52 52 50 44 50 58 47 46 43 52 54 54 51 54 53 52 52 57 59 56 55 55 57 55 52 54 59 75 80 80
Wind_Direction
276 275 281 284 281 280 280 283 285 287 289 287 289 292 294 299 300 299 299 295 294 297 302 298 286 263 246 231 229 215 217 222 225 216 208 220 252 257 249 307 281 270 270
272 272 274 281 283 288 288 290 292 293 296 292 293 294 297 300 301 300 300 297 294 294 302 302 288 269 254 237 226 213 215 217 214 221 221 203 239 249 242 267 287 298 279
273 276 278 280 281 292 301 305 293 289 297 296 294 293 300 303 302 301 298 295 293 293 307 307 290 277 259 240 227 213 214 219 215 225 235 240 255 238 244 246 260 281 280
274 276 276 280 281 281 288 283 281 289 286 291 291 290 299 301 301 304 305 307 305 294 302 300 290 291 277 251 233 219 215 219 218 221 232 246 246 239 245 249 257 269 280
258 264 271 275 275 264 276 264 285 277 280 282 288 292 297 298 299 297 299 296 295 295 299 293 293 291 278 257 239 223 219 221 221 223 228 234 239 246 252 253 261 270 272
253 255 256 253 262 262 259 250 252 258 275 287 280 286 289 291 292 291 297 294 294 293 292 288 284 297 278 264 243 227 220 219 220 222 227 240 239 242 251 259 257 264 269
257 257 255 250 246 244 249 251 254 253 247 253 265 276 274 273 269 279 283 284 291 292 292 288 279 286 285 272 245 229 225 220 219 220 223 230 234 243 246 255 258 262 268
258 259 257 255 252 252 248 244 247 252 245 248 253 257 264 266 256 259 273 289 282 279 284 282 285 279 284 270 254 233 225 220 221 219 222 223 234 238 243 245 247 254 262
258 260 260 261 259 258 256 253 249 252 250 253 255 252 254 254 252 252 247 272 268 270 279 276 279 274 275 279 267 237 233 225 222 221 223 227 233 235 240 241 247 254 259
257 258 259 261 263 262 260 259 257 256 255 254 255 258 258 255 250 245 254 240 255 261 263 264 269 271 272 278 273 249 235 233 226 226 223 227 230 237 241 244 245 253 254
257 258 260 260 262 264 264 264 264 262 261 259 255 254 254 254 249 246 239 238 241 250 252 258 262 264 265 266 258 265 254 237 236 231 228 230 234 237 243 245 246 247 247
254 256 259 261 262 264 265 265 266 267 266 264 261 261 258 254 249 246 242 240 243 249 255 257 260 261 262 258 258 263 268 268 242 238 232 230 234 235 238 243 242 243 244
254 255 256 259 262 263 262 264 266 268 268 268 270 268 263 256 250 247 243 241 244 245 246 250 253 260 259 261 268 270 271 272 266 245 236 232 235 237 239 238 245 245 247
251 253 255 260 262 262 261 262 264 266 269 270 272 272 268 261 255 247 244 242 242 246 250 250 255 258 265 270 268 273 272 270 267 251 236 233 233 236 238 242 241 246 249
251 254 256 258 261 261 262 267 268 266 268 270 269 270 271 264 260 250 245 246 247 247 253 255 255 258 265 265 263 266 268 264 272 247 232 235 233 236 237 241 244 243 248
250 253 254 257 259 262 262 266 268 266 267 269 270 270 268 266 262 259 250 247 249 249 251 256 260 258 259 267 263 265 264 265 263 237 230 233 236 240 239 240 244 240 234
250 251 254 256 262 263 262 264 264 266 268 269 267 266 265 265 262 258 251 246 245 246 250 252 255 259 264 268 258 259 261 258 242 233 232 232 238 240 241 239 242 239 244
252 252 255 257 258 260 261 262 265 268 268 265 263 264 266 259 254 250 244 240 241 247 245 253 256 260 261 252 248 251 251 237 233 231 230 235 240 236 230 234 232 232 236
252 254 255 256 257 260 261 263 266 265 262 261 263 263 256 252 249 254 245 243 244 247 243 253 263 261 245 240 238 239 231 226 229 231 234 236 232 226 225 227 228 232 238
254 251 253 256 257 258 260 262 262 262 256 256 257 250 248 248 247 246 247 247 247 246 249 250 251 244 234 244 241 229 222 220 222 230 234 235 233 224 226 230 233 238 242
251 252 254 257 257 260 261 262 262 252 250 246 246 239 239 241 246 253 256 256 253 252 244 239 235 242 247 242 231 226 221 223 223 224 239 238 233 228 224 228 234 239 243
252 255 255 255 257 263 262 259 252 245 234 229 223 223 222 233 231 273 263 253 240 235 227 228 227 240 238 228 223 224 226 229 227 227 230 230 235 238 237 236 234 236 243
253 252 255 259 262 264 262 257 242 230 224 221 218 214 219 228 211 228 252 254 246 236 238 241 239 240 244 224 221 227 232 231 231 236 240 243 243 245 241 243 245 248 250
257 257 260 262 261 258 253 244 232 218 219 216 220 220 226 228 212 232 232 239 243 238 234 235 247 255 245 234 225 228 232 234 237 240 244 245 249 256 255 248 248 248 250
258 258 256 253 248 244 241 236 216 215 216 216 218 215 213 219 230 228 243 244 241 244 246 244 244 244 237 234 230 232 236 237 235 239 243 248 249 252 254 253 252 251 251
249 245 241 237 236 239 234 225 211 208 210 215 212 217 214 224 225 230 242 242 247 236 241 243 242 242 234 235 236 237 237 235 236 239 245 248 256 262 265 263 256 251 252